When you browse on this site, cookies collect data to enhance your experience and personalize the content and advertising you see.
Visit our Privacy Policy to learn more. By continuing to use the site, you agree to this use of cookies and data.
  • In United Kingdom
  • List of Countries
  • For 7 days
  • Water Temperature
  • Satellite Maps
  • Weather Map
  • Weather Widgets
  • user-avatar
    Login

    Hourly Weather Bahawalpur

    Today, 17 July, Wednesday

    Time Temperature Precipitation Wind Pressure Humidity
    00:00 +40°C° 0.5 mm 4 mps 738 mmHg 42%
    01:00 +40°C° 0.5 mm 5 mps 738 mmHg 43%
    02:00 +39°C° 0.5 mm 5 mps 738 mmHg 44%
    03:00 +38°C° 0.4 mm 6 mps 738 mmHg 49%
    04:00 +36°C° 0.4 mm 6 mps 738 mmHg 54%
    05:00 +35°C° 0 mm 4 mps 738 mmHg 59%
    06:00 +35°C° 0.8 mm 5 mps 739 mmHg 58%
    07:00 +36°C° 0.8 mm 5 mps 739 mmHg 57%
    08:00 +36°C° 0.8 mm 6 mps 739 mmHg 57%
    09:00 +37°C° 0.2 mm 5 mps 739 mmHg 52%
    10:00 +40°C° 0.2 mm 5 mps 739 mmHg 47%
    11:00 +41°C° 0 mm 4 mps 740 mmHg 43%
    12:00 +42°C° 0 mm 4 mps 739 mmHg 39%
    13:00 +43°C° 0 mm 4 mps 739 mmHg 36%
    14:00 +44°C° 0 mm 3 mps 738 mmHg 33%
    15:00 +44°C° 0 mm 3 mps 738 mmHg 32%
    16:00 +43°C° 0 mm 2 mps 737 mmHg 31%
    17:00 +43°C° 0 mm 2 mps 737 mmHg 29%
    18:00 +43°C° 0 mm 2 mps 737 mmHg 30%
    19:00 +43°C° 0 mm 2 mps 737 mmHg 30%
    20:00 +43°C° 0 mm 2 mps 737 mmHg 30%
    21:00 +43°C° 0 mm 3 mps 737 mmHg 31%
    22:00 +43°C° 0 mm 4 mps 738 mmHg 32%
    23:00 +43°C° 0 mm 5 mps 738 mmHg 32%

    Tomorrow, 18 July, Thursday

    Time Temperature Precipitation Wind Pressure Humidity
    00:00 +42°C° 0.1 mm 5 mps 738 mmHg 35%
    01:00 +41°C° 0.1 mm 5 mps 737 mmHg 38%
    02:00 +40°C° 0.1 mm 5 mps 737 mmHg 41%
    03:00 +39°C° 0 mm 5 mps 737 mmHg 44%
    04:00 +37°C° 0 mm 5 mps 737 mmHg 47%
    05:00 +36°C° 0 mm 6 mps 738 mmHg 50%
    06:00 +36°C° 0 mm 6 mps 738 mmHg 50%
    07:00 +36°C° 0 mm 6 mps 738 mmHg 51%
    08:00 +36°C° 0 mm 6 mps 739 mmHg 51%
    09:00 +39°C° 0.2 mm 6 mps 739 mmHg 47%
    10:00 +40°C° 0.2 mm 5 mps 739 mmHg 43%
    11:00 +41°C° 0.2 mm 5 mps 739 mmHg 39%
    12:00 +43°C° 0 mm 5 mps 738 mmHg 36%
    13:00 +44°C° 0 mm 4 mps 738 mmHg 32%
    14:00 +45°C° 0 mm 4 mps 738 mmHg 28%
    15:00 +45°C° 0 mm 4 mps 737 mmHg 27%
    16:00 +47°C° 0 mm 4 mps 737 mmHg 26%
    17:00 +46°C° 0 mm 3 mps 736 mmHg 25%
    18:00 +46°C° 0 mm 3 mps 736 mmHg 26%
    19:00 +45°C° 0 mm 3 mps 736 mmHg 27%
    20:00 +45°C° 0 mm 3 mps 736 mmHg 27%
    21:00 +44°C° 0 mm 4 mps 737 mmHg 28%
    22:00 +44°C° 0 mm 4 mps 737 mmHg 29%
    23:00 +43°C° 0 mm 5 mps 737 mmHg 30%

    Day after tomorrow, 19 July, Friday

    Time Temperature Precipitation Wind Pressure Humidity
    00:00 +42°C° 0.1 mm 5 mps 737 mmHg 33%
    01:00 +42°C° 0.1 mm 6 mps 737 mmHg 35%
    02:00 +41°C° 0.1 mm 6 mps 737 mmHg 38%
    03:00 +40°C° 0 mm 6 mps 737 mmHg 42%
    04:00 +38°C° 0 mm 7 mps 738 mmHg 45%
    05:00 +36°C° 0 mm 7 mps 738 mmHg 49%
    06:00 +36°C° 0 mm 7 mps 738 mmHg 50%
    07:00 +36°C° 0 mm 7 mps 739 mmHg 50%
    08:00 +36°C° 0 mm 6 mps 739 mmHg 50%
    09:00 +39°C° 0 mm 6 mps 739 mmHg 45%
    10:00 +41°C° 0 mm 6 mps 739 mmHg 39%
    11:00 +44°C° 0 mm 6 mps 739 mmHg 34%
    12:00 +45°C° 0 mm 6 mps 739 mmHg 31%
    13:00 +46°C° 0 mm 5 mps 738 mmHg 29%
    14:00 +47°C° 0 mm 5 mps 738 mmHg 26%
    15:00 +47°C° 0 mm 5 mps 738 mmHg 25%
    16:00 +48°C° 0 mm 4 mps 737 mmHg 24%
    17:00 +48°C° 0 mm 4 mps 737 mmHg 24%
    18:00 +47°C° 0 mm 4 mps 737 mmHg 24%
    19:00 +47°C° 0 mm 4 mps 737 mmHg 25%
    20:00 +45°C° 0 mm 3 mps 738 mmHg 25%
    21:00 +44°C° 0 mm 4 mps 738 mmHg 26%
    22:00 +44°C° 0 mm 4 mps 738 mmHg 26%
    23:00 +44°C° 0 mm 4 mps 738 mmHg 27%

    20 July, Saturday

    Time Temperature Precipitation Wind Pressure Humidity
    00:00 +43°C° 0 mm 5 mps 738 mmHg 29%
    01:00 +42°C° 0 mm 5 mps 738 mmHg 31%
    02:00 +41°C° 0 mm 6 mps 738 mmHg 32%
    03:00 +40°C° 0 mm 6 mps 738 mmHg 37%
    04:00 +39°C° 0 mm 7 mps 738 mmHg 41%
    05:00 +38°C° 0 mm 7 mps 738 mmHg 46%
    06:00 +38°C° 0 mm 7 mps 739 mmHg 45%
    07:00 +39°C° 0 mm 7 mps 739 mmHg 45%
    08:00 +39°C° 0 mm 7 mps 740 mmHg 45%
    09:00 +41°C° 0 mm 7 mps 740 mmHg 40%
    10:00 +44°C° 0 mm 7 mps 740 mmHg 35%
    11:00 +45°C° 0 mm 7 mps 740 mmHg 30%
    12:00 +46°C° 0 mm 6 mps 739 mmHg 28%
    13:00 +47°C° 0 mm 6 mps 739 mmHg 26%
    14:00 +48°C° 0 mm 5 mps 738 mmHg 23%
    15:00 +48°C° 0 mm 5 mps 738 mmHg 22%
    16:00 +48°C° 0 mm 5 mps 737 mmHg 22%
    17:00 +48°C° 0 mm 4 mps 737 mmHg 21%
    18:00 +48°C° 0 mm 4 mps 737 mmHg 21%
    19:00 +47°C° 0 mm 5 mps 737 mmHg 22%
    20:00 +46°C° 0 mm 5 mps 737 mmHg 23%
    21:00 +46°C° 0 mm 5 mps 737 mmHg 24%
    22:00 +45°C° 0 mm 5 mps 737 mmHg 24%
    23:00 +45°C° 0 mm 6 mps 737 mmHg 25%

    21 July, Sunday

    Time Temperature Precipitation Wind Pressure Humidity
    00:00 +44°C° 0 mm 6 mps 737 mmHg 26%
    01:00 +43°C° 0 mm 7 mps 737 mmHg 27%
    02:00 +41°C° 0 mm 7 mps 737 mmHg 29%
    03:00 +40°C° 0 mm 7 mps 737 mmHg 35%
    04:00 +39°C° 0 mm 7 mps 737 mmHg 40%
    05:00 +38°C° 0 mm 7 mps 737 mmHg 46%
    06:00 +39°C° 0 mm 7 mps 737 mmHg 45%
    07:00 +39°C° 0 mm 7 mps 737 mmHg 44%
    08:00 +40°C° 0 mm 8 mps 737 mmHg 42%
    09:00 +41°C° 0 mm 8 mps 738 mmHg 38%
    10:00 +44°C° 0 mm 8 mps 738 mmHg 33%
    11:00 +45°C° 0 mm 8 mps 738 mmHg 29%
    12:00 +47°C° 0 mm 7 mps 737 mmHg 26%
    13:00 +49°C° 0 mm 7 mps 737 mmHg 23%
    14:00 +49°C° 0 mm 6 mps 736 mmHg 20%
    15:00 +49°C° 0 mm 6 mps 736 mmHg 19%
    16:00 +49°C° 0 mm 5 mps 735 mmHg 18%
    17:00 +49°C° 0 mm 5 mps 735 mmHg 18%
    18:00 +48°C° 0 mm 5 mps 735 mmHg 19%
    19:00 +47°C° 0 mm 4 mps 735 mmHg 19%
    20:00 +45°C° 0 mm 4 mps 735 mmHg 20%
    21:00 +46°C° 0 mm 5 mps 735 mmHg 22%
    22:00 +45°C° 0 mm 6 mps 735 mmHg 23%
    23:00 +44°C° 0 mm 6 mps 736 mmHg 24%

    22 July, Monday

    Time Temperature Precipitation Wind Pressure Humidity
    00:00 +43°C° 0 mm 7 mps 735 mmHg 29%
    01:00 +41°C° 0 mm 8 mps 735 mmHg 34%
    02:00 +40°C° 0 mm 8 mps 735 mmHg 38%
    03:00 +39°C° 0 mm 8 mps 735 mmHg 41%
    04:00 +38°C° 0 mm 8 mps 736 mmHg 44%
    05:00 +37°C° 0 mm 8 mps 736 mmHg 46%
    06:00 +37°C° 0 mm 8 mps 736 mmHg 48%
    07:00 +37°C° 0 mm 8 mps 737 mmHg 49%
    08:00 +37°C° 0 mm 8 mps 737 mmHg 50%
    09:00 +39°C° 0 mm 8 mps 737 mmHg 45%
    10:00 +41°C° 0 mm 8 mps 737 mmHg 39%
    11:00 +44°C° 0 mm 7 mps 737 mmHg 34%
    12:00 +45°C° 0 mm 7 mps 736 mmHg 30%
    13:00 +47°C° 0 mm 6 mps 735 mmHg 26%
    14:00 +48°C° 0 mm 6 mps 735 mmHg 23%
    15:00 +49°C° 0 mm 5 mps 734 mmHg 22%
    16:00 +49°C° 0 mm 5 mps 733 mmHg 21%
    17:00 +49°C° 0 mm 4 mps 733 mmHg 21%
    18:00 +48°C° 0 mm 4 mps 733 mmHg 22%
    19:00 +48°C° 0 mm 4 mps 733 mmHg 23%
    20:00 +46°C° 0 mm 3 mps 733 mmHg 25%
    21:00 +46°C° 0 mm 5 mps 734 mmHg 27%
    22:00 +45°C° 0 mm 7 mps 734 mmHg 29%
    23:00 +44°C° 0 mm 8 mps 734 mmHg 31%
    Show more